Location: *
(55.6049°S, 142.1985°W)
Time: 23:55:12
(UTC+00:00)

Cosmos 2058 Rocket - Pass Details

Date: 12 May 2021
Orbit: 611 x 638 km, 82.5° (Epoch: 18 June)

Event Time Altitude Azimuth Distance (km) Brightness Sun altitude
Rises 14:19:15 0° 0° (N) 2,935 6.5 -24.3°
Reaches altitude 10° 14:21:30 10° 3° (N) 2,031 5.7 -24.0°
Maximum altitude 14:25:57 63° 83° (E) 721 3.5 -23.3°
Drops below altitude 10° 14:30:25 10° 163° (SSE) 2,040 5.9 -22.7°
Sets 14:32:41 0° 166° (SSE) 2,950 6.7 -22.4°
